LAN211 SCEL-SCIE

Flight info

Callsign LAN211
Flight time 0h 46m
Altitude 31000
Route GELUS5B GELUS UQ809 ARUNI ARUNI1A
Aircraft A320/M-SDE3FGHIRWY/LB1

Departure

Time 2026-05-05 20:29
Airport Comodoro Arturo Merino Benítez International Airport (SCEL)

Arrival

Time 2026-05-05 21:15
Airport Carriel Sur International Airport (SCIE)
Time Latitude Longitude Altitude Speed Heading
2026-05-05 19:42 -33.39600 -70.79533 1565 ft 0 kts 176°
2026-05-05 20:10 -33.39593 -70.79534 1564 ft 4 kts 176°
2026-05-05 20:10 -33.39566 -70.79535 1564 ft 4 kts 178°
2026-05-05 20:10 -33.39543 -70.79536 1564 ft 4 kts 184°
2026-05-05 20:10 -33.39521 -70.79526 1564 ft 4 kts 237°
2026-05-05 20:11 -33.39513 -70.79498 1564 ft 4 kts 265°
2026-05-05 20:11 -33.39513 -70.79490 1564 ft 0 kts 266°
2026-05-05 20:16 -33.39513 -70.79493 1564 ft 1 kts 266°
2026-05-05 20:16 -33.39513 -70.79505 1564 ft 2 kts 266°
2026-05-05 20:17 -33.39514 -70.79525 1564 ft 3 kts 266°
2026-05-05 20:17 -33.39516 -70.79555 1564 ft 7 kts 267°
2026-05-05 20:17 -33.39518 -70.79625 1565 ft 8 kts 267°
2026-05-05 20:17 -33.39521 -70.79689 1565 ft 7 kts 267°
2026-05-05 20:18 -33.39523 -70.79746 1565 ft 6 kts 266°
2026-05-05 20:18 -33.39526 -70.79794 1565 ft 5 kts 267°
2026-05-05 20:18 -33.39527 -70.79835 1565 ft 4 kts 269°
2026-05-05 20:18 -33.39528 -70.79867 1565 ft 3 kts 268°
2026-05-05 20:19 -33.39529 -70.79891 1565 ft 3 kts 268°
2026-05-05 20:19 -33.39530 -70.79958 1565 ft 13 kts 270°
2026-05-05 20:19 -33.39500 -70.80040 1566 ft 13 kts 333°
2026-05-05 20:19 -33.39398 -70.80050 1566 ft 19 kts 358°
2026-05-05 20:20 -33.39242 -70.80059 1566 ft 23 kts 356°
2026-05-05 20:20 -33.39091 -70.80069 1567 ft 21 kts 358°
2026-05-05 20:20 -33.38998 -70.80072 1567 ft 19 kts 358°
2026-05-05 20:20 -33.38829 -70.80082 1567 ft 17 kts 357°
2026-05-05 20:21 -33.38712 -70.80089 1567 ft 16 kts 358°
2026-05-05 20:21 -33.38603 -70.80095 1568 ft 15 kts 357°
2026-05-05 20:21 -33.38504 -70.80100 1567 ft 14 kts 357°
2026-05-05 20:21 -33.38412 -70.80105 1566 ft 13 kts 357°
2026-05-05 20:22 -33.38323 -70.80110 1566 ft 12 kts 358°
2026-05-05 20:22 -33.38239 -70.80114 1566 ft 11 kts 358°
2026-05-05 20:22 -33.38187 -70.80117 1566 ft 11 kts 358°
2026-05-05 20:22 -33.38095 -70.80123 1566 ft 9 kts 357°
2026-05-05 20:23 -33.38054 -70.80125 1566 ft 9 kts 358°
2026-05-05 20:23 -33.37996 -70.80127 1566 ft 8 kts 358°
2026-05-05 20:23 -33.37918 -70.80131 1566 ft 15 kts 357°
2026-05-05 20:23 -33.37791 -70.80138 1566 ft 20 kts 357°
2026-05-05 20:24 -33.37662 -70.80144 1567 ft 18 kts 358°
2026-05-05 20:24 -33.37544 -70.80150 1567 ft 16 kts 357°
2026-05-05 20:24 -33.37435 -70.80156 1567 ft 15 kts 357°
2026-05-05 20:24 -33.37336 -70.80161 1567 ft 14 kts 358°
2026-05-05 20:25 -33.37246 -70.80166 1567 ft 12 kts 358°
2026-05-05 20:25 -33.37162 -70.80174 1567 ft 12 kts 343°
2026-05-05 20:25 -33.37111 -70.80230 1568 ft 9 kts 295°
2026-05-05 20:25 -33.37104 -70.80277 1571 ft 3 kts 272°
2026-05-05 20:26 -33.37105 -70.80295 1572 ft 5 kts 262°
2026-05-05 20:26 -33.37123 -70.80341 1574 ft 5 kts 233°
2026-05-05 20:26 -33.37148 -70.80365 1574 ft 5 kts 208°
2026-05-05 20:26 -33.37191 -70.80374 1573 ft 8 kts 179°
2026-05-05 20:27 -33.37208 -70.80373 1573 ft 0 kts 178°
2026-05-05 20:28 -33.37228 -70.80372 1573 ft 15 kts 178°
2026-05-05 20:28 -33.37619 -70.80350 1573 ft 94 kts 178°
2026-05-05 20:28 -33.38488 -70.80304 1573 ft 152 kts 178°
2026-05-05 20:29 -33.39609 -70.80253 2113 ft 161 kts 175°
2026-05-05 20:29 -33.40725 -70.80185 2885 ft 161 kts 177°
2026-05-05 20:29 -33.41881 -70.80114 3353 ft 178 kts 178°
2026-05-05 20:29 -33.43201 -70.80036 3702 ft 201 kts 177°
2026-05-05 20:30 -33.44691 -70.79958 4109 ft 227 kts 181°
2026-05-05 20:30 -33.46260 -70.80516 4570 ft 251 kts 217°
2026-05-05 20:30 -33.47446 -70.82157 5134 ft 271 kts 241°
2026-05-05 20:30 -33.48319 -70.84199 6003 ft 279 kts 248°
2026-05-05 20:31 -33.49108 -70.86333 6960 ft 282 kts 249°
2026-05-05 20:31 -33.49928 -70.88485 7925 ft 285 kts 249°
2026-05-05 20:31 -33.50810 -70.90625 8952 ft 288 kts 248°
2026-05-05 20:31 -33.51753 -70.92749 9954 ft 290 kts 247°
2026-05-05 20:32 -33.52773 -70.94915 10455 ft 311 kts 243°
2026-05-05 20:32 -33.54204 -70.97012 10928 ft 337 kts 228°
2026-05-05 20:32 -33.56108 -70.98763 11558 ft 356 kts 215°
2026-05-05 20:32 -33.58336 -71.00111 12470 ft 359 kts 211°
2026-05-05 20:33 -33.60581 -71.01440 13373 ft 362 kts 212°
2026-05-05 20:33 -33.62841 -71.02804 14181 ft 365 kts 213°
2026-05-05 20:33 -33.65122 -71.04197 14867 ft 369 kts 213°
2026-05-05 20:33 -33.67419 -71.05607 15608 ft 372 kts 213°
2026-05-05 20:34 -33.69735 -71.07030 16357 ft 376 kts 214°
2026-05-05 20:34 -33.72075 -71.08465 17086 ft 379 kts 214°
2026-05-05 20:34 -33.74438 -71.09907 17804 ft 383 kts 214°
2026-05-05 20:34 -33.76786 -71.11339 18447 ft 386 kts 214°
2026-05-05 20:35 -33.79193 -71.12810 19061 ft 389 kts 215°
2026-05-05 20:35 -33.81616 -71.14289 19724 ft 392 kts 215°
2026-05-05 20:35 -33.84053 -71.15773 20390 ft 394 kts 215°
2026-05-05 20:35 -33.86505 -71.17264 21035 ft 396 kts 215°
2026-05-05 20:36 -33.88969 -71.18764 21671 ft 398 kts 215°
2026-05-05 20:36 -33.91448 -71.20277 22316 ft 401 kts 216°
2026-05-05 20:36 -33.93942 -71.21803 22931 ft 403 kts 216°
2026-05-05 20:36 -33.96453 -71.23340 23523 ft 405 kts 216°
2026-05-05 20:37 -33.98973 -71.24884 24024 ft 407 kts 216°
2026-05-05 20:37 -34.01504 -71.26435 24513 ft 409 kts 216°
2026-05-05 20:37 -34.04049 -71.27996 24969 ft 413 kts 216°
2026-05-05 20:37 -34.06619 -71.29573 25480 ft 415 kts 217°
2026-05-05 20:38 -34.09197 -71.31151 25962 ft 416 kts 217°
2026-05-05 20:38 -34.11785 -71.32735 26463 ft 418 kts 217°
2026-05-05 20:38 -34.14385 -71.34327 26891 ft 420 kts 217°
2026-05-05 20:38 -34.16961 -71.35910 27325 ft 422 kts 217°
2026-05-05 20:39 -34.19586 -71.37527 27779 ft 424 kts 217°
2026-05-05 20:39 -34.22216 -71.39150 28210 ft 426 kts 217°
2026-05-05 20:39 -34.24860 -71.40785 28659 ft 428 kts 217°
2026-05-05 20:39 -34.27518 -71.42430 29092 ft 430 kts 217°
2026-05-05 20:40 -34.30184 -71.44079 29521 ft 432 kts 218°
2026-05-05 20:40 -34.32865 -71.45736 29963 ft 434 kts 218°
2026-05-05 20:40 -34.35561 -71.47402 30315 ft 436 kts 218°
2026-05-05 20:40 -34.38267 -71.49074 30634 ft 438 kts 218°
2026-05-05 20:41 -34.40986 -71.50754 30907 ft 439 kts 218°
2026-05-05 20:41 -34.46314 -71.54016 30972 ft 414 kts 218°
2026-05-05 20:42 -34.51372 -71.57136 30986 ft 405 kts 219°
2026-05-05 20:42 -34.56367 -71.60288 30978 ft 404 kts 220°
2026-05-05 20:43 -34.61368 -71.63426 30978 ft 405 kts 219°
2026-05-05 20:43 -34.66356 -71.66533 30974 ft 406 kts 219°
2026-05-05 20:44 -34.71385 -71.69664 30970 ft 406 kts 219°
2026-05-05 20:44 -34.76405 -71.72791 30973 ft 405 kts 219°
2026-05-05 20:45 -34.83923 -71.77497 30974 ft 404 kts 219°
2026-05-05 20:45 -34.88934 -71.80638 30988 ft 405 kts 220°
2026-05-05 20:46 -34.93936 -71.83781 30968 ft 404 kts 220°
2026-05-05 20:46 -34.98937 -71.86930 30965 ft 405 kts 220°
2026-05-05 20:47 -35.03948 -71.90082 30965 ft 405 kts 220°
2026-05-05 20:47 -35.08968 -71.93230 30956 ft 406 kts 220°
2026-05-05 20:48 -35.13969 -71.96387 30955 ft 407 kts 220°
2026-05-05 20:48 -35.19001 -71.99579 30951 ft 408 kts 220°
2026-05-05 20:49 -35.24025 -72.02759 30948 ft 407 kts 220°
2026-05-05 20:49 -35.29071 -72.05955 30952 ft 409 kts 220°
2026-05-05 20:50 -35.34118 -72.09155 30951 ft 409 kts 220°
2026-05-05 20:50 -35.39164 -72.12364 30956 ft 408 kts 220°
2026-05-05 20:51 -35.44209 -72.15585 30974 ft 409 kts 220°
2026-05-05 20:51 -35.49257 -72.18809 30963 ft 409 kts 220°
2026-05-05 20:52 -35.54321 -72.22040 30642 ft 410 kts 220°
2026-05-05 20:52 -35.56809 -72.23625 30140 ft 407 kts 220°
2026-05-05 20:52 -35.59316 -72.25223 29578 ft 405 kts 220°
2026-05-05 20:53 -35.61799 -72.26809 29086 ft 400 kts 220°
2026-05-05 20:53 -35.64250 -72.28378 28597 ft 395 kts 220°
2026-05-05 20:53 -35.66680 -72.29931 28160 ft 390 kts 220°
2026-05-05 20:53 -35.69072 -72.31458 27679 ft 386 kts 220°
2026-05-05 20:54 -35.71437 -72.32978 27227 ft 381 kts 220°
2026-05-05 20:54 -35.73773 -72.34482 26786 ft 377 kts 220°
2026-05-05 20:54 -35.76084 -72.35974 26359 ft 374 kts 220°
2026-05-05 20:54 -35.78383 -72.37457 25919 ft 371 kts 220°
2026-05-05 20:55 -35.80658 -72.38926 25487 ft 367 kts 220°
2026-05-05 20:55 -35.82914 -72.40382 25027 ft 365 kts 220°
2026-05-05 20:55 -35.85158 -72.41830 24584 ft 363 kts 220°
2026-05-05 20:55 -35.87359 -72.43314 24128 ft 355 kts 225°
2026-05-05 20:56 -35.89305 -72.45094 23710 ft 342 kts 233°
2026-05-05 20:56 -35.90962 -72.47126 23269 ft 333 kts 238°
2026-05-05 20:56 -35.92546 -72.49189 22836 ft 329 kts 239°
2026-05-05 20:56 -35.94110 -72.51226 22457 ft 325 kts 238°
2026-05-05 20:57 -35.95660 -72.53249 22034 ft 323 kts 239°
2026-05-05 20:57 -35.97199 -72.55261 21641 ft 322 kts 239°
2026-05-05 20:57 -35.98731 -72.57262 21241 ft 320 kts 238°
2026-05-05 20:57 -36.00260 -72.59257 20858 ft 319 kts 238°
2026-05-05 20:58 -36.01783 -72.61247 20493 ft 319 kts 238°
2026-05-05 20:58 -36.03303 -72.63235 20100 ft 318 kts 238°
2026-05-05 20:58 -36.04823 -72.65224 19730 ft 318 kts 238°
2026-05-05 20:58 -36.06326 -72.67188 19337 ft 318 kts 238°
2026-05-05 20:59 -36.07849 -72.69178 18950 ft 319 kts 238°
2026-05-05 20:59 -36.09371 -72.71174 18582 ft 319 kts 238°
2026-05-05 20:59 -36.10892 -72.73169 18207 ft 319 kts 238°
2026-05-05 20:59 -36.12415 -72.75165 17802 ft 319 kts 238°
2026-05-05 21:00 -36.13936 -72.77158 17427 ft 318 kts 238°
2026-05-05 21:00 -36.15451 -72.79147 17065 ft 317 kts 237°
2026-05-05 21:00 -36.16957 -72.81128 16700 ft 316 kts 237°
2026-05-05 21:00 -36.18459 -72.83103 16334 ft 314 kts 237°
2026-05-05 21:01 -36.19956 -72.85069 15976 ft 313 kts 237°
2026-05-05 21:01 -36.21449 -72.87032 15619 ft 313 kts 237°
2026-05-05 21:01 -36.22937 -72.88990 15264 ft 312 kts 237°
2026-05-05 21:01 -36.24422 -72.90946 14919 ft 312 kts 237°
2026-05-05 21:02 -36.25905 -72.92898 14563 ft 311 kts 237°
2026-05-05 21:02 -36.27388 -72.94849 14210 ft 310 kts 237°
2026-05-05 21:02 -36.28844 -72.96768 13861 ft 310 kts 237°
2026-05-05 21:02 -36.30336 -72.98699 13477 ft 312 kts 233°
2026-05-05 21:03 -36.32089 -73.00351 13092 ft 322 kts 220°
2026-05-05 21:03 -36.34149 -73.01550 12691 ft 331 kts 209°
2026-05-05 21:03 -36.36307 -73.02531 12301 ft 330 kts 209°
2026-05-05 21:03 -36.38464 -73.03520 11896 ft 329 kts 209°
2026-05-05 21:04 -36.40608 -73.04510 11522 ft 327 kts 208°
2026-05-05 21:04 -36.42716 -73.05482 11324 ft 320 kts 208°
2026-05-05 21:04 -36.44796 -73.06443 10942 ft 319 kts 208°
2026-05-05 21:04 -36.46869 -73.07406 10584 ft 317 kts 208°
2026-05-05 21:05 -36.48933 -73.08366 10230 ft 316 kts 208°
2026-05-05 21:05 -36.50976 -73.09314 9698 ft 311 kts 207°
2026-05-05 21:05 -36.52988 -73.10245 9105 ft 305 kts 207°
2026-05-05 21:05 -36.54936 -73.11143 8692 ft 292 kts 207°
2026-05-05 21:06 -36.56808 -73.12005 8316 ft 281 kts 207°
2026-05-05 21:06 -36.58626 -73.12847 7908 ft 279 kts 207°
2026-05-05 21:06 -36.60416 -73.13683 7522 ft 278 kts 207°
2026-05-05 21:06 -36.62225 -73.14529 7114 ft 277 kts 207°
2026-05-05 21:07 -36.64036 -73.15379 6707 ft 279 kts 207°
2026-05-05 21:07 -36.65853 -73.16231 6292 ft 279 kts 207°
2026-05-05 21:07 -36.67672 -73.17085 5852 ft 279 kts 207°
2026-05-05 21:07 -36.69485 -73.17928 5417 ft 275 kts 207°
2026-05-05 21:08 -36.71336 -73.18565 4999 ft 278 kts 194°
2026-05-05 21:08 -36.73257 -73.18862 4573 ft 277 kts 191°
2026-05-05 21:08 -36.75115 -73.19139 4433 ft 258 kts 192°
2026-05-05 21:08 -36.76841 -73.19397 4358 ft 244 kts 193°
2026-05-05 21:09 -36.78498 -73.19651 4236 ft 232 kts 194°
2026-05-05 21:09 -36.80069 -73.19894 4158 ft 222 kts 194°
2026-05-05 21:09 -36.81554 -73.20125 4063 ft 208 kts 195°
2026-05-05 21:09 -36.82949 -73.20343 3961 ft 196 kts 195°
2026-05-05 21:10 -36.84267 -73.20521 3862 ft 188 kts 188°
2026-05-05 21:10 -36.85572 -73.20279 3576 ft 198 kts 164°
2026-05-05 21:10 -36.86779 -73.19432 3281 ft 200 kts 137°
2026-05-05 21:10 -36.87649 -73.18129 3008 ft 192 kts 113°
2026-05-05 21:11 -36.88095 -73.16608 2756 ft 182 kts 89°
2026-05-05 21:11 -36.88123 -73.15046 2384 ft 179 kts 69°
2026-05-05 21:11 -36.87768 -73.13622 2159 ft 165 kts 51°
2026-05-05 21:11 -36.87167 -73.12503 1975 ft 146 kts 36°
2026-05-05 21:12 -36.86678 -73.11933 1893 ft 138 kts 27°
2026-05-05 21:12 -36.85913 -73.11364 1750 ft 123 kts 16°
2026-05-05 21:12 -36.85129 -73.10907 1595 ft 126 kts 17°
2026-05-05 21:12 -36.84332 -73.10441 1411 ft 126 kts 19°
2026-05-05 21:13 -36.83540 -73.09978 1242 ft 125 kts 20°
2026-05-05 21:13 -36.82751 -73.09516 1070 ft 125 kts 19°
2026-05-05 21:13 -36.81953 -73.09051 898 ft 127 kts 21°
2026-05-05 21:13 -36.81159 -73.08587 724 ft 128 kts 23°
2026-05-05 21:14 -36.80357 -73.08119 562 ft 127 kts 25°
2026-05-05 21:14 -36.79561 -73.07653 398 ft 125 kts 26°
2026-05-05 21:14 -36.78771 -73.07194 245 ft 127 kts 24°
2026-05-05 21:14 -36.77982 -73.06742 94 ft 123 kts 25°
2026-05-05 21:15 -36.77279 -73.06334 58 ft 91 kts 25°
2026-05-05 21:15 -36.76861 -73.06090 59 ft 42 kts 25°
2026-05-05 21:15 -36.76646 -73.05964 59 ft 29 kts 25°
2026-05-05 21:15 -36.76486 -73.05872 68 ft 22 kts 25°
2026-05-05 21:16 -36.76370 -73.05803 62 ft 12 kts 30°
2026-05-05 21:16 -36.76324 -73.05726 62 ft 11 kts 73°
2026-05-05 21:16 -36.76348 -73.05631 57 ft 10 kts 121°
2026-05-05 21:16 -36.76387 -73.05585 54 ft 6 kts 159°
2026-05-05 21:17 -36.76416 -73.05584 59 ft 5 kts 189°
2026-05-05 21:17 -36.76470 -73.05613 59 ft 12 kts 205°
2026-05-05 21:17 -36.76570 -73.05672 61 ft 18 kts 205°
2026-05-05 21:17 -36.76669 -73.05729 61 ft 14 kts 205°
2026-05-05 21:18 -36.76744 -73.05772 57 ft 10 kts 205°
2026-05-05 21:18 -36.76798 -73.05804 61 ft 9 kts 205°
2026-05-05 21:18 -36.76864 -73.05842 52 ft 12 kts 205°
2026-05-05 21:18 -36.76952 -73.05893 61 ft 15 kts 205°
2026-05-05 21:19 -36.77056 -73.05955 59 ft 18 kts 205°
2026-05-05 21:19 -36.77179 -73.06027 58 ft 21 kts 205°
2026-05-05 21:19 -36.77315 -73.06107 57 ft 20 kts 205°
2026-05-05 21:19 -36.77430 -73.06173 61 ft 14 kts 206°
2026-05-05 21:20 -36.77474 -73.06187 61 ft 4 kts 175°
2026-05-05 21:20 -36.77492 -73.06179 61 ft 1 kts 149°
2026-05-05 21:20 -36.77494 -73.06176 61 ft 1 kts 142°
2026-05-05 21:20 -36.77508 -73.06151 56 ft 7 kts 118°
2026-05-05 21:21 -36.77531 -73.06080 55 ft 8 kts 104°
2026-05-05 21:21 -36.77559 -73.06046 57 ft 4 kts 159°
2026-05-05 21:21 -36.77579 -73.06039 56 ft 2 kts 167°
2026-05-05 21:21 -36.77582 -73.06038 55 ft 0 kts 167°
2026-05-05 21:22 -36.77586 -73.06037 56 ft 0 kts 168°
2026-05-05 21:22 -36.77591 -73.06036 55 ft 0 kts 169°
2026-05-05 21:22 -36.77600 -73.06034 57 ft 0 kts 170°
2026-05-05 21:22 -36.77604 -73.06033 57 ft 0 kts 170°
2026-05-05 21:23 -36.77607 -73.06033 57 ft 0 kts 170°
2026-05-05 21:27 -36.77607 -73.06032 60 ft 0 kts 170°